Regional Weather Roundup
Issued by NWS

Home | Current Version | Previous Version | Text Only | Print | Product List | Glossary On
Versions: 1 2 3 4 5 6 7 8 9 10 11 12 13 14 15 16 17 18 19 20 21 22 23 24 25 26 27 28 29 30 31 32 33 34 35 36 37 38 39 40 41 42 43 44 45 46 47 48 49 50
000
ASUS43 KLOT 021221
RWRIL

ILLINOIS REGIONAL WEATHER ROUNDUP
NATIONAL WEATHER SERVICE CHICAGO/ROMEOVILLE IL
700 AM CDT THU JUL 02 2015

NOTE: "FAIR" INDICATES FEW OR NO CLOUDS BELOW 12,000 FEET WITH NO
SIGNIFICANT WEATHER AND/OR OBSTRUCTIONS TO VISIBILITY.

* THESE STATIONS ARE NOT UNDER NWS QUALITY CONTROL. THEY ALSO MAY NOT
  REPORT WEATHER SUCH AS PRECIPITATION OR FOG.

ILZ001-002-007-009-015-016-024-021300-
NORTHWEST ILLINOIS

CITY           SKY/WX    TMP DP  RH WIND       PRES   REMARKS
MOLINE         SUNNY     57  50  77 NE9       29.98S
6HR MIN TEMP:  56; 6HR MAX TEMP:  64;

STERLING*      SUNNY     55  50  82 E12       30.00S
$$

ILZ003-004-008-010-011-017-018-021300-
NORTH CENTRAL ILLINOIS

CITY           SKY/WX    TMP DP  RH WIND       PRES   REMARKS
ROCKFORD       MOSUNNY   55  49  80 NE7       30.04R
6HR MIN TEMP:  51; 6HR MAX TEMP:  55;

$$

ILZ005-006-012>014-019>023-021300-
NORTHEAST ILLINOIS

CITY           SKY/WX    TMP DP  RH WIND       PRES   REMARKS
CHICAGO-OHARE  CLOUDY    55  53  93 NE8       30.00R FOG
6HR MIN TEMP:  53; 6HR MAX TEMP:  55;

CHICAGO-MIDWAY CLOUDY    61  56  83 NE16      29.99R
6HR MIN TEMP:  56; 6HR MAX TEMP:  61;

AURORA         CLOUDY    55  51  86 NE9       30.01R
6HR MIN TEMP:  51; 6HR MAX TEMP:  55;

WAUKEGAN       CLOUDY    55  52  89 N7        30.01R
6HR MIN TEMP:  45; 6HR MAX TEMP:  55;

DUPAGE AIRPORT CLOUDY    55  52  89 NE7       30.00R
6HR MIN TEMP:  48; 6HR MAX TEMP:  55;

WHEELING       CLOUDY    55  52  89 NE7       30.03R
6HR MIN TEMP:  50; 6HR MAX TEMP:  55;

NORTHERLY ISL    N/A     57  55  93 MISG        N/A
$$

LMZ740>746-021300-
SOUTHERN LAKE MICHIGAN

STATION/POSITION SKY/WX   TEMP    WIND        PRES    VSBY  WAVE
                          AIR SEA DIR/SP/G                  HT/PER
                          (F)     (DEG/KT/KT) (MB)    (MI)  (FT/S)
HARRISON CRIB              56      10/ 13/ 15   N/A
BURNHAM HARBOR             58     350/  9/ 15   N/A
CALUMET HARBOR             59      10/  8/ 14   N/A
BURNS HARBOR               60      60/ 16/ 17 1014.9S
MICHIGAN CITY              56      40/  8/  9   N/A
MICHIGAN CITY 6N           59 64   80/ 10/ 14   N/A           3/ 4
ST. JOSEPH                 57 62                N/A           2/ 5
$$

ILZ025>027-034>036-040-047-049-050-058-095>099-021300-
WEST-CENTRAL ILLINOIS

CITY           SKY/WX    TMP DP  RH WIND       PRES   REMARKS
QUINCY         CLOUDY    63  55  75 E13       29.92R
$$

ILZ028>032-037-038-041>044-048-051>054-059>061-021300-
CENTRAL ILLINOIS

CITY           SKY/WX    TMP DP  RH WIND       PRES   REMARKS
BLOOMINGTON    PTSUNNY   57  56  97 NE14      29.98R FOG
DECATUR        CLOUDY    60  55  83 NE12      29.94R
PEORIA         PTSUNNY   60  53  77 NE12      29.96R
6HR MIN TEMP:  60; 6HR MAX TEMP:  65;

SPRINGFIELD    CLOUDY    63  55  75 NE13      29.93R
6HR MIN TEMP:  63; 6HR MAX TEMP:  69; 6HR PCP: TRACE;

TAYLORVILLE    NOT AVBL
$$

ILZ033-039-045-046-055>057-062-063-021300-
EAST-CENTRAL ILLINOIS

CITY           SKY/WX    TMP DP  RH WIND       PRES   REMARKS
CHAMPAIGN      CLOUDY    59  55  87 NE9       29.93R
MATTOON        CLOUDY    60  55  83 NE6       29.90R
PARIS*         PTSUNNY   60  55  82 NE8       29.91
$$

ILZ079-100>102-021300-
SOUTHWEST ILLINOIS

CITY           SKY/WX    TMP DP  RH WIND       PRES   REMARKS
ALTON          RAIN      63  63 100 NE9       29.89
BELLEVILLE     DRIZZLE   70  70 100 NE10      29.85R FOG
CAHOKIA*       LGT RAIN  73  70  90 MISG      29.86R FOG
$$

ILZ064>066-069>071-074>076-080>082-084>086-088>090-092>094-021300-
SOUTH-CENTRAL ILLINOIS

CITY           SKY/WX    TMP DP  RH WIND       PRES   REMARKS
CARBONDALE     PTSUNNY   71  69  93 CALM      29.85S
6HR MIN TEMP:  70; 6HR MAX TEMP:  73; 6HR PCP:  0.87;

MT. VERNON     CLOUDY    72  66  83 CALM      29.87S
$$

ILZ067-068-072-073-078-083-087-091-021300-
SOUTHEAST ILLINOIS

CITY           SKY/WX    TMP DP  RH WIND       PRES   REMARKS
LAWRENCEVILLE  CLOUDY    66  65  96 N8        29.86S FOG
$$

ABBREVIATIONS USED IN REMARKS
   TC - TEMPERATURE IN CELSIUS
  WCI - WIND CHILL INDEX
   HX - HEAT INDEX
  VSB - VISIBILITY
$$



USA.gov is the U.S. government's official web portal to all federal, state and local government web resources and services.